COMSATBW-2

Last updated on Sun Jun 21 2026 00:03:04 GMT+0000 (Coordinated Universal Time)

1 36582U 10021B 26171.25205683 .00000084 00000+0 00000+0 0 9996 2 36582 0.0530 70.6231 0002758 34.1110 267.6800 1.00274081 58987
UTC large
Height (km)
Speed (km/s)
/
Latitude / Longitude
Inclination (degrees)
Orbital Period (minutes)
Azimuth
Elevation
Range (km)
Doppler Factor

Next 0 passes for location: London (51.5072 / 0.1276)

No passes found over London.
COMSATBW-2